Weather History for Manteo, NC

Change the Weather History Date:

Friday, November 2, 2012

  Actual Average Record
Temperature  
Mean Temperature 52 °F -  
Max Temperature 60 °F 64 °F 82 °F (1971)
Min Temperature 44 °F 52 °F 41 °F (1993)
Degree Days  
Heating Degree Days 13    
Growing Degree Days 2 (Base 50)    
Moisture  
Dew Point 36 °F    
Average Humidity 57    
Maximum Humidity 76    
Minimum Humidity 34    
Precipitation  
Precipitation 0.00 in - - ()
Sea Level Pressure  
Sea Level Pressure 29.84 in    
Wind  
Wind Speed 6 mph (WNW)    
Max Wind Speed 13 mph    
Max Gust Speed 18 mph    
Visibility 10 miles    
Events      
Averages and records for this station are not official NWS values.
T = Trace of Precipitation, MM = Missing Value Source: NWS Daily Summary

Daily Weather History Graph

Daily Weather History Graph

Search for Another Location

Airport:

Trip Planner

Search our weather history database for the weather conditions in past years. The results will help you decide how hot, cold, wet, or windy it might be!

Date:

Astronomy

Nov. 02, 2012 Rise Set
Actual Time 7:26 AM EDT 6:05 PM EDT
Civil Twilight 7:00 AM EDT 6:32 PM EDT
Nautical Twilight 6:29 AM EDT 7:02 PM EDT
Astronomical Twilight 5:59 AM EDT 7:32 PM EDT
Moon 8:54 PM EDT (11/2) 10:41 AM EDT (11/2)
Length of Visible Light 11h 32m
Length of Day
10h 38m
Waning Gibbous, 87% of the Moon is Illuminated
Nov 2
Waning Gibbous
Nov 6
Last Quarter
Nov 13
New
Nov 20
First Quarter
Nov 28
Full

Hourly Weather History & Observations

Time (EDT) Temp. Windchill Dew Point Humidity Pressure Visibility Wind Dir Wind Speed Gust Speed Precip Events Conditions
12:15 AM 50.0 °F - 41.0 °F 71% 29.80 in 10.0 mi West 5.8 mph - N/A   Unknown
12:35 AM 51.8 °F - 37.4 °F 58% 29.80 in 10.0 mi WNW 9.2 mph 16.1 mph N/A   Unknown
12:55 AM 51.8 °F - 35.6 °F 54% 29.81 in 10.0 mi WNW 12.7 mph 18.4 mph N/A   Unknown
1:15 AM 50.0 °F - 37.4 °F 62% 29.80 in 10.0 mi WNW 6.9 mph - N/A   Unknown
1:35 AM 50.0 °F - 35.6 °F 58% 29.80 in 10.0 mi WNW 10.4 mph 17.3 mph N/A   Unknown
1:55 AM 50.0 °F - 35.6 °F 58% 29.81 in 10.0 mi WNW 8.1 mph - N/A   Unknown
2:15 AM 50.0 °F - 37.4 °F 62% 29.82 in 10.0 mi WNW 4.6 mph - N/A   Unknown
2:35 AM 50.0 °F - 35.6 °F 58% 29.81 in 10.0 mi WNW 5.8 mph - N/A   Unknown
2:55 AM 50.0 °F - 37.4 °F 62% 29.82 in 10.0 mi West 6.9 mph - N/A   Unknown
3:15 AM 46.4 °F 43.5 °F 37.4 °F 71% 29.82 in 10.0 mi West 5.8 mph - N/A   Unknown
3:35 AM 46.4 °F 43.5 °F 37.4 °F 71% 29.82 in 10.0 mi West 5.8 mph - N/A   Unknown
3:55 AM 46.4 °F 42.4 °F 37.4 °F 71% 29.82 in 10.0 mi West 8.1 mph - N/A   Unknown
4:15 AM 48.2 °F - 35.6 °F 62% 29.82 in 10.0 mi WNW 8.1 mph - N/A   Unknown
4:35 AM 48.2 °F - 35.6 °F 62% 29.82 in 10.0 mi WNW 6.9 mph - N/A   Unknown
4:55 AM 50.0 °F - 35.6 °F 58% 29.82 in 10.0 mi WNW 8.1 mph - N/A   Unknown
5:15 AM 48.2 °F - 37.4 °F 66% 29.82 in 10.0 mi West 5.8 mph - N/A   Unknown
5:35 AM 46.4 °F 42.4 °F 37.4 °F 71% 29.83 in 10.0 mi West 8.1 mph - N/A   Unknown
5:55 AM 46.4 °F 43.5 °F 37.4 °F 71% 29.83 in 10.0 mi West 5.8 mph - N/A   Unknown
6:15 AM 44.6 °F 39.7 °F 37.4 °F 76% 29.83 in 10.0 mi West 9.2 mph - N/A   Unknown
6:35 AM 44.6 °F 40.7 °F 37.4 °F 76% 29.84 in 10.0 mi West 6.9 mph - N/A   Unknown
6:55 AM 44.6 °F 41.4 °F 37.4 °F 76% 29.85 in 10.0 mi West 5.8 mph - N/A   Unknown
7:15 AM 44.6 °F 42.2 °F 37.4 °F 76% 29.85 in 10.0 mi West 4.6 mph - N/A   Unknown
7:35 AM 44.6 °F 39.7 °F 37.4 °F 76% 29.86 in 10.0 mi West 9.2 mph - N/A   Unknown
7:55 AM 44.6 °F 40.7 °F 37.4 °F 76% 29.86 in 10.0 mi West 6.9 mph - N/A   Unknown
8:15 AM 44.6 °F 40.7 °F 37.4 °F 76% 29.86 in 10.0 mi West 6.9 mph - N/A   Unknown
8:35 AM 46.4 °F 43.5 °F 37.4 °F 71% 29.86 in 10.0 mi West 5.8 mph - N/A   Unknown
8:55 AM 48.2 °F - 37.4 °F 66% 29.86 in 10.0 mi West 4.6 mph - N/A   Unknown
9:15 AM 50.0 °F - 35.6 °F 58% 29.87 in 10.0 mi West 8.1 mph - N/A   Unknown
9:55 AM 50.0 °F - 35.6 °F 58% 29.88 in 10.0 mi West 6.9 mph - N/A   Unknown
10:15 AM 53.6 °F - 35.6 °F 51% 29.87 in 10.0 mi West 9.2 mph - N/A   Unknown
10:35 AM 53.6 °F - 33.8 °F 47% 29.87 in 10.0 mi West 5.8 mph - N/A   Unknown
10:55 AM 55.4 °F - 33.8 °F 44% 29.86 in 10.0 mi West 6.9 mph - N/A   Unknown
11:15 AM 57.2 °F - 32.0 °F 38% 29.85 in 10.0 mi Calm Calm - N/A   Unknown
11:35 AM 59.0 °F - 32.0 °F 36% 29.84 in 10.0 mi WNW 5.8 mph - N/A   Unknown
11:55 AM 59.0 °F - 32.0 °F 36% 29.83 in 10.0 mi West 6.9 mph - N/A   Unknown
12:15 PM 60.8 °F - 32.0 °F 34% 29.83 in 10.0 mi West 9.2 mph - N/A   Unknown
12:35 PM 59.0 °F - 32.0 °F 36% 29.83 in 10.0 mi West 8.1 mph - N/A   Unknown
12:55 PM 60.8 °F - 32.0 °F 34% 29.82 in 10.0 mi WNW 5.8 mph - N/A   Unknown
1:15 PM 60.8 °F - 32.0 °F 34% 29.80 in 10.0 mi West 8.1 mph - N/A   Unknown
1:35 PM 59.0 °F - 32.0 °F 36% 29.80 in 10.0 mi West 10.4 mph - N/A   Unknown
1:55 PM 55.4 °F - 33.8 °F 44% 29.80 in 10.0 mi West 6.9 mph - N/A   Unknown
2:15 PM 57.2 °F - 33.8 °F 41% 29.79 in 10.0 mi West 4.6 mph - N/A   Unknown
2:35 PM 59.0 °F - 35.6 °F 42% 29.79 in 10.0 mi WNW 5.8 mph - N/A   Unknown
2:55 PM 57.2 °F - 33.8 °F 41% 29.80 in 10.0 mi WNW 8.1 mph - N/A   Unknown
3:15 PM 55.4 °F - 33.8 °F 44% 29.80 in 10.0 mi WNW 5.8 mph - N/A   Unknown
3:35 PM 55.4 °F - 33.8 °F 44% 29.80 in 10.0 mi NW 6.9 mph - N/A   Unknown
3:55 PM 55.4 °F - 35.6 °F 47% 29.81 in 10.0 mi NW 4.6 mph - N/A   Unknown
4:15 PM 55.4 °F - 37.4 °F 51% 29.81 in 10.0 mi Calm Calm - N/A   Unknown
4:55 PM 53.6 °F - 39.2 °F 58% 29.82 in 10.0 mi Calm Calm - N/A   Unknown
5:15 PM 53.6 °F - 39.2 °F 58% 29.83 in 10.0 mi Calm Calm - N/A   Unknown
5:35 PM 53.6 °F - 37.4 °F 54% 29.83 in 10.0 mi Calm Calm - N/A   Unknown
5:55 PM 53.6 °F - 37.4 °F 54% 29.84 in 10.0 mi Calm Calm - N/A   Unknown
6:15 PM 51.8 °F - 37.4 °F 58% 29.84 in 10.0 mi Calm Calm - N/A   Unknown
6:35 PM 51.8 °F - 41.0 °F 67% 29.85 in 10.0 mi Calm Calm - N/A   Unknown
6:55 PM 51.8 °F - 41.0 °F 67% 29.86 in 10.0 mi Calm Calm - N/A   Unknown
7:15 PM 51.8 °F - 41.0 °F 67% 29.87 in 10.0 mi Calm Calm - N/A   Unknown
7:55 PM 50.0 °F - 41.0 °F 71% 29.89 in 10.0 mi Calm Calm - N/A   Unknown
8:15 PM 51.8 °F - 35.6 °F 54% 29.89 in 10.0 mi NW 5.8 mph - N/A   Unknown
8:35 PM 51.8 °F - 33.8 °F 50% 29.90 in 10.0 mi NNW 4.6 mph - N/A   Unknown
8:55 PM 51.8 °F - 35.6 °F 54% 29.91 in 10.0 mi NNW 3.5 mph - N/A   Unknown
9:15 PM 51.8 °F - 33.8 °F 50% 29.91 in 10.0 mi NNW 3.5 mph - N/A   Unknown
9:35 PM 51.8 °F - 33.8 °F 50% 29.91 in 10.0 mi NNW 5.8 mph - N/A   Unknown
9:55 PM 51.8 °F - 33.8 °F 50% 29.91 in 10.0 mi North 3.5 mph - N/A   Unknown
10:15 PM 50.0 °F - 33.8 °F 54% 29.92 in 10.0 mi North 4.6 mph - N/A   Unknown
10:35 PM 50.0 °F - 35.6 °F 58% 29.91 in 10.0 mi North 3.5 mph - N/A   Unknown
10:55 PM 50.0 °F - 35.6 °F 58% 29.92 in 10.0 mi Calm Calm - N/A   Unknown
11:15 PM 48.2 °F - 35.6 °F 62% 29.92 in 10.0 mi Calm Calm - N/A   Unknown
11:35 PM 46.4 °F - 33.8 °F 62% 29.92 in 10.0 mi Calm Calm - N/A   Unknown
11:55 PM 48.2 °F - 33.8 °F 58% 29.93 in 10.0 mi Calm Calm - N/A   Unknown